Погода в Житковичи

Погода в Житковичи : погода сейчас, прогноз погоды и архив. Всё, что Вы хотите узнать о погоде в Житковичи!

Хотите узнать прогноз погоды в Житковичи? Тогда Вам сюда: Погода в Житковичи

Поиск расширенной информации на нашем сайте:

Полезная информация: Круг отрезной инваб.

Другие новости

Новости СМИ2

Главная страница сайта

Новости сайта

03.07.2017

Напоминаем, что на нашем специализированном сайте Метеоцентр.Азия вы можете получить высокодетализированные автоматические прогнозы погоды по пунктам России, СНГ и мира в авиационном формате (включающие направление и скорость ветра, видимость, явления погоды, количество и форму облачности, нижнюю и верхнюю границу облачности).

Рекомендуем: Ворота гаражные секционные отзыв о гаражные секционные ворота.

Погода в Житковичи - сегодня

Время (UTC), дата Ветер
(°,м/с) 
Видим.   Явления Облачность Т
(°С)
Тd
(°С)
f(%) Тe
(°С)
Pmin
(гПа)
dP
(гПа)
Po
(мм)
O2
(г/м3)
Тmin Tmax R s Состояние
почвы
15 18.10.17 220 (ЮЗ) 20000 м    10/0 средняя, верхняя 
[Ac trans|Cs]
+18.7 +12.1 65 +24  1014.8  -0.4  749  280           
18 18.10.17 230 (ЮЗ) 10 км    10/0 верхняя 
[Cs]
+15.4 +12.1 81 +21  1015.4  0.4  749  284    +21.7       
21 18.10.17 тихо ()   4000 м  дымка  10/0 верхняя 
[Cs]
+12.2 +11.9 98 +16  1015.8  0.3  750  287           
00 19.10.17 тихо ()   4000 м  дымка  10/0 верхняя 
[Cs]
+11.1 +10.2 94 +13  1016.5  0.6  750  289           
03 19.10.17 тихо ()   1000 м  дымка  10/0 верхняя 
[Cs]
+8 +7.8 99 +8  1016.7  750  292           
06 19.10.17 тихо ()   0500 м  туман  ?/?  
+6.7 +6.7 100 +7  1017.4  0.6  751  294  +6         
09 19.10.17 060 (СВ) 10 км  {туман}  8/0 верхняя 
[Cs]
+12.7 +9.3 80 +14  1017.7  0.7  751  288           
12 19.10.17 010 (С) 10 км  {туман}  10/3 600 м верхняя 
[Sc|Cs]
+15 +8.2 64 +16  1017.5  -0.1  751  285           
15 19.10.17 020 (С) 10 км    10/5 600 м верхняя 
[Sc|Cs]
+13.1 +9.4 78 +14  1017.3  -0.3  751  287           
18 19.10.17 тихо ()   4000 м  дымка  9/0 средняя 
[Ac trans]
+10 +8.8 92 +10  1019.1  1.6  752  291    +15.4       
21 19.10.17 020 (С) 4000 м  дымка  9/9 600 м 
[Sc]
+10.2 +9 92 +11  1019.9  0.8  753  291           
00 20.10.17 050 (СВ) 10 км    9/9 600 м 
[Sc]
+8.9 +6.1 83 +9  1020.5  0.5  753  293           
03 20.10.17 040 (СВ) 10 км    9/9 600 м 
[Sc]
+8.2 +5.1 81 +9  1021  0.5  753  294           
06 20.10.17 050 (СВ) 10 км    9/9 300 м 
[Sc]
+7.8 +4.6 80 +9  1022  0.8  754  295  +7.7         
09 20.10.17 090 (В) 20000 м    9/4 1000 м средняя 
[Sc|Ac trans]
+10.6 +4.3 65 +11  1022.4  0.7  754  292           
12 20.10.17 070 (В) 20000 м    9/9 1000 м 
[Sc]
+12.3 +3 53 +14  1021.9  -0.4  754  290           
15 20.10.17 тихо ()   10 км    9/9 600 м 
[Sc]
+11.3 +5.1 66 +11  1021.7  -0.3  754  291           
18 20.10.17 040 (СВ) 10 км    9/9 600 м 
[Sc]
+9.5 +5.3 75 +11  1022.2  0.4  754  293    +12.6       
21 20.10.17 080 (В) 10 км    9/9 600 м 
[Sc]
+8.8 +3.2 68 +10  1021.7  -0.5  754  294           
00 21.10.17 110 (В) 10 км    9/9 600 м 
[Sc]
+8 +3.2 72 +9  1021.2  -0.7  753  294           
03 21.10.17 100 (В) 10 км    9/9 600 м 
[Sc]
+7.6 +3.4 75 +9  1020  -1.2  752  294           
06 21.10.17 090 (В) 10 км    10/8 600 м средняя 
[Sc|Ac und]
+6.9 +3.1 77 +8  1018.9  -1  752  295  +6.8         
09 21.10.17 070 (В) 10 км  в посл. час ливневой дождь  10/4 600 м кучево-дожд., средняя 
[Cb cap|Ac As]
+5.9 +4.3 89 +7  1018.1  -0.9  751  296         
12 21.10.17 040 (СВ) 10 км  {ливн. осадки}  10/6 600 м средняя 
[Sc|Ac und]
+6.4 +3.8 83 +7  1016.4  -1.6  750  295           
15 21.10.17 030 (СВ) 4000 м  слаб. дождь  10/9 300 м средняя 
[Frnb|As op]
+5.6 +4.9 95 +6  1015.7  -0.8  749  295         
Время (UTC), дата Ветер
(°,м/с) 
Видим.   Явления Облачность Т
(°С)
Тd
(°С)
f(%) Тe
(°С)
Pmin
(гПа)
dP
(гПа)
Po
(мм)
O2
(г/м3)
Тmin Tmax R s Состояние
почвы

Для получения пояснительной информации подведите курсор к названию столбца.

ПОГОДА в Житковичи - архив

Всё, что Вы хотите узнать о погоде в Житковичи - удобно и подробно!

Выберите нужную дату (начиная с 1 января 2015* года) и нажмите кнопку "Найти".
Будут отображены архивные сводки погоды по пункту Житковичи, начиная с указанной даты.


Отображать данные в формате CSV (для использования в таблицах Excel)


Внимание! Наш архив погоды предназначен исключительно для личного некоммерческого использования в познавательных целях. Если Вам необходимы официальные справки о состоянии погоды (для производственных, юридических, коммерческих и т.п. целей), обращайтесь в органы Росгидромета.

*Примечание: данная дата относится к архиву по метеостанциям СССР (Россия, СНГ, Балтия).
Архив по метеостанциям Зарубежной Европы и Азии (кроме Китая) хранится 10 дней, по другим регионам земного шара (Китай, Африка, Америка, Австралия, Океания) - 1 день.

Житковичи - район местоположения метеостанции


Название, широта, долгота, высота метеостанции:
Житковичи 52.2°ш. 27.9°д. 137 м над ур. моря [Беларусь]

Дополнительная информация

В oтличие oт бoльшинства пoгoдных сайтoв мы публикуем пoдрoбную метеoинфoрмацию в детальнoм прoфессиoнальнoм фoрмате.

Характеристики температуры и влажнoсти вoздуха измеряются на высoте 2 м в тени вдали oт зданий и деревьев.
Скoрoсть ветра измеряется на высoте 10 м (на урoвне рoста челoвека скoрoсть ветра ниже в 1.5-2 раза). Если метеoстанция нахoдится в гoрoде или в лесу, тo скoрoсть ветра занижена на 2-4 м/с пo сравнению с oткрытым местoм. Скoрoсть ветра над акватoриями крупных рек и oзёр, а также на вершинах хoлмoв на 2-5 м/с выше, чем в oбычных услoвиях.
Атмoсфернoе давление в разных тoчках местнoсти мoжет значительнo oтличаться oт давления на метеoстанции, в зависимoсти oт услoвий рельефа (при пoдъёме на 10 м давление пoнижается примернo на 1 мм рт.ст.).